Henderson, KY

2:38 PM CST on January 23, 2018 (GMT -0600)
Henderson City-County

Weather History for KEHR - April, 2013

Change the Weather History Date:

Sunday, April 28, 2013

  Actual Average Record
Temperature  
Mean Temperature 58 °F -  
Max Temperature 60 °F 72 °F 85 °F (1951)
Min Temperature 55 °F 50 °F 33 °F (1992)
Degree Days  
Heating Degree Days 8    
Growing Degree Days 8 (Base 50)    
Moisture  
Dew Point 47 °F    
Average Humidity 69    
Maximum Humidity 77    
Minimum Humidity 59    
Precipitation  
Precipitation 0.04 in - - ()
Sea Level Pressure  
Sea Level Pressure 29.91 in    
Wind  
Wind Speed 8 mph (WSW)    
Max Wind Speed 15 mph    
Max Gust Speed 16 mph    
Visibility 10 miles    
Events      
Averages and records for this station are not official NWS values.
T = Trace of Precipitation, MM = Missing Value Source: NWS Daily Summary

Daily Weather History Graph

Daily Weather History Graph

Search for Another Location

Airport or City:

Trip Planner

Search our weather history database for the weather conditions in past years. The results will help you decide how hot, cold, wet, or windy it might be!

Date:

Astronomy

Apr. 28, 2013 Rise Set
Actual Time 5:58 AM CDT 7:38 PM CDT
Civil Twilight 5:30 AM CDT 8:06 PM CDT
Nautical Twilight 4:56 AM CDT 8:40 PM CDT
Astronomical Twilight 4:20 AM CDT 9:16 PM CDT
Moon 11:06 PM CDT (4/28) 8:16 AM CDT (4/28)
Length of Visible Light 14h 36m
Length of Day
13h 40m
Waning Gibbous, 88% of the Moon is Illuminated
Apr 28
Waning Gibbous
May 2
Last Quarter
May 9
New
May 17
First Quarter
May 24
Full

Hourly Weather History & Observations

Time (CDT) Temp. Dew Point Humidity Pressure Visibility Wind Dir Wind Speed Gust Speed Precip Events Conditions
12:15 AM 57.2 °F 48.2 °F 72% 29.89 in 10.0 mi East 4.6 mph - N/A   Overcast
12:35 AM 57.2 °F 48.2 °F 72% 29.90 in 10.0 mi SE 5.8 mph - N/A   Overcast
12:55 AM 57.2 °F 48.2 °F 72% 29.90 in 10.0 mi SSE 6.9 mph - N/A   Overcast
1:15 AM 57.2 °F 48.2 °F 72% 29.90 in 10.0 mi South 5.8 mph - N/A   Overcast
1:35 AM 57.2 °F 48.2 °F 72% 29.89 in 10.0 mi SSE 4.6 mph - N/A   Overcast
1:55 AM 57.2 °F 48.2 °F 72% 29.89 in 10.0 mi South 6.9 mph - N/A   Overcast
2:15 AM 57.2 °F 48.2 °F 72% 29.88 in 10.0 mi SSE 5.8 mph - N/A   Overcast
2:35 AM 57.2 °F 48.2 °F 72% 29.87 in 10.0 mi SSE 6.9 mph - N/A   Overcast
2:55 AM 57.2 °F 48.2 °F 72% 29.86 in 10.0 mi South 10.4 mph 16.1 mph N/A   Overcast
3:15 AM 57.2 °F 48.2 °F 72% 29.85 in 10.0 mi South 9.2 mph - N/A   Overcast
3:35 AM 57.2 °F 48.2 °F 72% 29.86 in 10.0 mi SSW 9.2 mph - N/A   Overcast
3:55 AM 57.2 °F 48.2 °F 72% 29.86 in 10.0 mi SSW 9.2 mph - N/A   Overcast
4:15 AM 57.2 °F 48.2 °F 72% 29.86 in 7.0 mi SSW 8.1 mph - N/A   Overcast
4:35 AM 57.2 °F 48.2 °F 72% 29.86 in 9.0 mi SSW 9.2 mph - N/A   Overcast
4:55 AM 57.2 °F 48.2 °F 72% 29.86 in 3.0 mi South 9.2 mph - N/A   Overcast
5:15 AM 57.2 °F 48.2 °F 72% 29.87 in 5.0 mi SSW 8.1 mph - N/A   Overcast
5:35 AM 57.2 °F 48.2 °F 72% 29.87 in 3.0 mi SSW 8.1 mph - 0.01 in   Overcast
5:55 AM 57.2 °F 48.2 °F 72% 29.87 in 5.0 mi West 9.2 mph - 0.03 in   Overcast
6:15 AM 55.4 °F 48.2 °F 77% 29.88 in 5.0 mi West 11.5 mph - 0.01 in   Overcast
6:35 AM 55.4 °F 46.4 °F 72% 29.89 in 8.0 mi West 9.2 mph - 0.01 in   Overcast
6:55 AM 55.4 °F 46.4 °F 72% 29.89 in 10.0 mi West 15.0 mph - 0.01 in   Overcast
7:15 AM 55.4 °F 46.4 °F 72% 29.89 in 10.0 mi West 13.8 mph - N/A   Overcast
7:35 AM 55.4 °F 46.4 °F 72% 29.90 in 10.0 mi West 10.4 mph - N/A   Overcast
8:15 AM 55.4 °F 46.4 °F 72% 29.91 in 10.0 mi West 10.4 mph - N/A   Overcast
8:35 AM 55.4 °F 46.4 °F 72% 29.91 in 10.0 mi WSW 8.1 mph - N/A   Overcast
8:55 AM 57.2 °F 46.4 °F 67% 29.91 in 10.0 mi WSW 13.8 mph - N/A   Overcast
9:15 AM 57.2 °F 46.4 °F 67% 29.92 in 10.0 mi WSW 11.5 mph - N/A   Overcast
9:35 AM 55.4 °F 46.4 °F 72% 29.92 in 10.0 mi SW 10.4 mph - N/A   Overcast
9:55 AM 55.4 °F 44.6 °F 67% 29.92 in 10.0 mi SW 11.5 mph - N/A   Overcast
10:15 AM 55.4 °F 44.6 °F 67% 29.92 in 10.0 mi WSW 12.7 mph - N/A   Overcast
10:35 AM 55.4 °F 46.4 °F 72% 29.93 in 10.0 mi WSW 10.4 mph - N/A   Overcast
10:55 AM 55.4 °F 46.4 °F 72% 29.93 in 10.0 mi WSW 12.7 mph - N/A   Overcast
11:15 AM 57.2 °F 46.4 °F 67% 29.93 in 10.0 mi West 10.4 mph - N/A   Overcast
11:35 AM 57.2 °F 46.4 °F 67% 29.92 in 10.0 mi West 10.4 mph - N/A   Overcast
11:55 AM 57.2 °F 46.4 °F 67% 29.92 in 10.0 mi WSW 10.4 mph 16.1 mph N/A   Overcast
12:15 PM 59.0 °F 46.4 °F 63% 29.92 in 10.0 mi WSW 11.5 mph - N/A   Overcast
12:35 PM 60.8 °F 46.4 °F 59% 29.92 in 10.0 mi WSW 10.4 mph - N/A   Overcast
12:55 PM 60.8 °F 46.4 °F 59% 29.92 in 10.0 mi WSW 10.4 mph - N/A   Overcast
1:15 PM 59.0 °F 46.4 °F 63% 29.93 in 10.0 mi WSW 11.5 mph - N/A   Overcast
1:35 PM 59.0 °F 46.4 °F 63% 29.93 in 10.0 mi West 10.4 mph - N/A   Overcast
1:55 PM 57.2 °F 46.4 °F 67% 29.93 in 10.0 mi West 10.4 mph - N/A   Overcast
2:15 PM 59.0 °F 46.4 °F 63% 29.94 in 10.0 mi West 10.4 mph - N/A   Overcast
2:35 PM 57.2 °F 46.4 °F 67% 29.94 in 10.0 mi West 13.8 mph - N/A   Overcast
2:55 PM 57.2 °F 46.4 °F 67% 29.93 in 10.0 mi West 10.4 mph - N/A   Overcast
3:15 PM 57.2 °F 46.4 °F 67% 29.93 in 10.0 mi West 9.2 mph - N/A   Overcast
3:35 PM 57.2 °F 46.4 °F 67% 29.92 in 10.0 mi WNW 13.8 mph - N/A   Overcast
3:55 PM 57.2 °F 46.4 °F 67% 29.92 in 10.0 mi West 11.5 mph - N/A   Overcast
4:15 PM 57.2 °F 46.4 °F 67% 29.91 in 10.0 mi WNW 12.7 mph - N/A   Overcast
4:35 PM 57.2 °F 46.4 °F 67% 29.91 in 10.0 mi West 11.5 mph - N/A   Overcast
4:55 PM 57.2 °F 46.4 °F 67% 29.92 in 10.0 mi West 8.1 mph - N/A   Overcast
5:15 PM 57.2 °F 46.4 °F 67% 29.92 in 10.0 mi WSW 9.2 mph - N/A   Overcast
5:35 PM 57.2 °F 46.4 °F 67% 29.92 in 10.0 mi West 8.1 mph - N/A   Overcast
5:55 PM 57.2 °F 46.4 °F 67% 29.92 in 10.0 mi West 5.8 mph - N/A   Overcast
6:15 PM 57.2 °F 46.4 °F 67% 29.92 in 10.0 mi West 4.6 mph - N/A   Overcast
6:35 PM 57.2 °F 46.4 °F 67% 29.92 in 10.0 mi West 5.8 mph - N/A   Overcast
6:55 PM 57.2 °F 46.4 °F 67% 29.92 in 10.0 mi West 4.6 mph - N/A   Overcast
7:15 PM 57.2 °F 46.4 °F 67% 29.92 in 10.0 mi West 4.6 mph - N/A   Overcast
7:35 PM 57.2 °F 46.4 °F 67% 29.92 in 10.0 mi WSW 4.6 mph - N/A   Overcast
7:55 PM 57.2 °F 46.4 °F 67% 29.93 in 10.0 mi SW 4.6 mph - N/A   Overcast
8:15 PM 57.2 °F 46.4 °F 67% 29.94 in 10.0 mi SW 4.6 mph - N/A   Overcast
8:35 PM 55.4 °F 46.4 °F 72% 29.94 in 10.0 mi SSW 5.8 mph - N/A   Overcast
8:55 PM 55.4 °F 46.4 °F 72% 29.95 in 10.0 mi SW 3.5 mph - N/A   Overcast
9:15 PM 55.4 °F 46.4 °F 72% 29.96 in 10.0 mi SW 4.6 mph - N/A   Overcast
9:35 PM 55.4 °F 46.4 °F 72% 29.96 in 10.0 mi WSW 5.8 mph - N/A   Overcast
9:55 PM 55.4 °F 46.4 °F 72% 29.96 in 10.0 mi WSW 5.8 mph - N/A   Overcast
10:15 PM 55.4 °F 46.4 °F 72% 29.96 in 10.0 mi SW 5.8 mph - N/A   Overcast
10:35 PM 55.4 °F 46.4 °F 72% 29.96 in 10.0 mi SW 4.6 mph - N/A   Overcast
10:55 PM 55.4 °F 46.4 °F 72% 29.96 in 10.0 mi WSW 5.8 mph - N/A   Overcast
11:15 PM 55.4 °F 46.4 °F 72% 29.95 in 10.0 mi WSW 5.8 mph - N/A   Overcast
11:35 PM 55.4 °F 46.4 °F 72% 29.95 in 10.0 mi WSW 4.6 mph - N/A   Overcast
11:55 PM 55.4 °F 46.4 °F 72% 29.95 in 10.0 mi WSW 4.6 mph - N/A   Overcast